Location: Grossmotten
(48.5500°N, 15.3833°E)
Time: 03:54:09
(UTC+00:00)

Cosmos 1125 Rocket - Visible Passes

Search period start: 28 February 2020 00:00
Search period end: 09 March 2020 00:00
Orbit: 757 x 780 km, 74.0° (Epoch: 27 February)

Date Brightness Start Highest point End Pass type
(mag) Time Alt. Az. Time Alt. Az. Time Alt. Az.
28 Feb 5.4 17:10:03 10° NNE 17:12:39 14° NE 17:15:15 10° ENE visible
28 Feb 3.5 18:50:36 10° NNW 18:55:54 62° ENE 18:56:24 59° E visible
28 Feb 5.7 20:33:34 10° NW 20:36:43 21° W 20:36:43 21° W visible
29 Feb 4.0 18:13:54 10° NNW 18:18:55 40° ENE 18:20:52 29° ESE visible
29 Feb 4.9 19:56:10 10° NW 20:00:55 34° WSW 20:01:11 33° WSW visible
01 Mar 4.5 17:37:18 10° N 17:41:51 27° NE 17:45:25 14° ESE visible
01 Mar 4.1 19:19:04 10° NNW 19:24:15 54° WSW 19:25:45 40° SSW visible
02 Mar 3.5 18:42:07 10° NNW 18:47:29 86° WSW 18:50:27 27° SSE visible
02 Mar 6.2 20:26:19 10° WNW 20:28:41 13° W 20:30:48 11° WSW visible
03 Mar 3.5 18:05:18 10° NNW 18:10:37 62° ENE 18:15:18 13° SE visible
03 Mar 5.7 19:48:16 10° NW 19:52:12 21° W 19:55:39 12° SW visible
04 Mar 4.0 17:28:36 10° NNW 17:33:38 40° ENE 17:38:37 10° SE visible
04 Mar 5.1 19:10:53 10° NW 19:15:38 34° WSW 19:20:22 10° SSW visible
05 Mar 4.2 18:33:46 10° NNW 18:38:57 54° WSW 18:44:06 10° S visible
06 Mar 3.6 17:56:50 10° NNW 18:02:11 86° WSW 18:07:30 10° SSE visible
06 Mar 6.3 19:40:59 10° WNW 19:43:24 13° W 19:45:49 10° WSW visible
07 Mar 3.6 17:20:01 10° NNW 17:25:19 61° ENE 17:30:33 10° SE visible
07 Mar 5.9 19:02:58 10° NW 19:06:55 22° W 19:10:52 10° SW visible
08 Mar 5.2 18:25:35 10° NW 18:30:21 34° WSW 18:35:05 10° SSW visible
